This demonstration page uses our WeatherBlox Daily Observations layout. Learn more.

Left ArrowRight Arrow

41.86663, -103.66717

Hourly Observations for August 19, 2018

Temp ( °F °C ) Dew Point ( °F °C ) Humidity (%) Winds ( mph kmh ) Pressure ( in mb ) Visibility ( mi km ) Precip ( " mm )
12:53 am 00:53 Clear 59 15 59 15 100 100 W 6 9 29.98 1015 10 16 0.00 0.00
1:53 am 01:53 Mostly Cloudy 57 13.9 57 13.9 100 100 NW 6 9 29.98 1015 10 16 0.00 0.00
2:53 am 02:53 Clear 56 13.3 54 12.2 93 93 WNW 5 7 29.97 1015 10 16 0.00 0.00
3:53 am 03:53 Cloudy 59 15 54 12.2 83 83 WNW 10 17 29.97 1015 10 16 0.00 0.00
4:53 am 04:53 Mostly Clear 58 14.4 55 12.8 90 90 WNW 9 15 29.97 1015 10 16 0.00 0.00
5:53 am 05:53 Partly Cloudy 54 12.2 54 12.2 100 100 NW 5 7 30.01 1016 10 16 0.00 0.00
6:53 am 06:53 Mostly Cloudy 59 15 57 13.9 93 93 W 8 13 30.00 1016 10 16 0.00 0.00
7:13 am 07:13 Mostly Cloudy 59 15 57 13.9 93 93 W 9 15 30.00 1016 10 16 0.00 0.00
7:26 am 07:26 Partly Cloudy 61 16 57 14 88 88 WNW 10 17 30.00 1016 10 16 0.00 0.00
7:53 am 07:53 Mostly Cloudy 61 16.1 57 13.9 87 87 WNW 10 17 30.01 1016 7 11 0.00 0.00
8:53 am 08:53 Cloudy 63 17.2 57 13.9 81 81 NW 14 22 30.02 1017 7 11 0.00 0.00
9:53 am 09:53 Cloudy 63 17.2 59 15 87 87 WNW 14 22 30.03 1017 8 13 0.00 0.00
10:53 am 10:53 Cloudy 65 18.3 57 13.9 76 76 NNW 22 35 30.04 1017 10 16 0.00 0.03
11:10 am 11:10 Cloudy with Light Rain 61 16 61 16 100 100 NNW 14 22 30.00 1016 4 6 0.00 0.00
11:53 am 11:53 Cloudy with Light Rain 62 16.7 61 16.1 96 96 NNW 13 20 30.06 1018 5 8 0.02 0.51
12:05 pm 12:05 Cloudy with Rain 62 16.7 61 16.1 96 96 NNW 18 30 30.00 1016 4 6 0.01 0.25
12:23 pm 12:23 Cloudy with Light Rain 61 16.1 61 16.1 100 100 NNW 15 24 30.00 1016 6 10 0.02 0.51
12:53 pm 12:53 Cloudy 63 17.2 63 17.2 100 100 NNW 18 30 30.07 1018 9 14 0.02 0.51
1:20 pm 13:20 Cloudy with Rain 61 16 61 16 100 100 NNW 14 22 30.00 1016 3 4 0.00 0.00
1:29 pm 13:29 Cloudy with Light Rain 61 16.1 61 16.1 100 100 NNW 13 20 30.00 1016 7 11 0.02 0.51
1:53 pm 13:53 Cloudy 63 17.2 60 15.6 90 90 NNW 18 30 30.07 1018 9 14 0.02 0.51
2:53 pm 14:53 Cloudy 64 17.8 59 15 84 84 NNW 16 26 30.07 1018 10 16 0.00 0.03
3:53 pm 15:53 Cloudy 66 18.9 57 13.9 73 73 N 21 33 30.06 1018 10 16 0.00 0.00
4:53 pm 16:53 Cloudy 67 19.4 57 13.9 71 71 N 20 31 30.06 1018 9 14 0.00 0.00
5:53 pm 17:53 Hazy 69 20.6 55 12.8 61 61 NNW 21 33 30.08 1019 4 6 0.00 0.00
6:53 pm 18:53 Hazy 65 18.3 49 9.4 56 56 N 9 15 30.09 1019 3 5 0.00 0.00
7:53 pm 19:53 Hazy 59 15 50 10 72 72 N 5 7 30.12 1020 3 5 0.00 0.00
8:53 pm 20:53 Hazy 57 13.9 51 10.6 81 81 NW 3 6 30.14 1021 5 8 0.00 0.00
9:53 pm 21:53 Clear with Mist and Fog 54 12.2 51 10.6 90 90 NE 6 9 30.18 1022 5 8 0.00 0.00
10:53 pm 22:53 Clear with Mist and Fog 53 11.7 50 10 89 89 N 6 9 30.18 1022 5 8 0.00 0.00
11:53 pm 23:53 Clear with Mist and Fog 50 10 48 8.9 93 93 WNW 6 9 30.20 1023 5 8 0.00 0.00

Powered by AerisWeather